#timestamp,LO_Frequency,Hit,StdDev 
1623560415.6,286046998.7,N
1623560435.5,286046999.2,N
1623560455.3,286046997.0,N
1623560475.1,286046995.8,N
1623560495.9,286046995.8,N
1623560515.7,286046993.5,N
1623560535.6,286046997.2,N
1623560555.4,286047004.4,N
1623560575.2,286047004.4,N
1623560595.1,286047003.8,N
1623560596.0,286047003.8,N
1623560615.8,286047005.3,N
1623560635.7,286047005.3,N
1623560655.5,286047006.4,N
1623560675.3,286047010.2,N
1623560695.2,286047004.1,N
1623560715.0,286047003.2,N
1623560715.9,286047003.2,N
1623560735.7,286047007.6,N
1623560755.6,286047004.1,N
1623560775.4,286046996.7,N
1623560795.3,286046998.9,N
1623560815.1,286046999.7,N
1623560816.0,286046999.7,N
1623560835.8,286047006.9,N
1623560855.7,286047005.6,N
1623560875.5,286047010.7,N
1623560895.3,286047008.4,N
1623560915.2,286046995.3,N
1623560935.0,286047001.5,N
1623560935.9,286047001.5,N
1623560955.8,286046995.9,N
1623560975.6,286046990.3,N
1623560995.4,286046993.1,N
1623561015.3,286046990.3,N
1623561035.1,286046990.3,N
1623561055.9,286046990.2,N
1623561075.7,286046996.0,N
1623561095.5,286046989.6,N
1623561115.4,286046991.6,N
1623561135.2,286046994.2,N
1623561155.0,286046998.5,N
1623561155.9,286046998.5,N
1623561175.8,286046994.3,N
1623561195.6,286046990.1,N
1623561215.5,286046987.5,N
1623561235.3,286046994.1,N
1623561255.1,286046999.2,N
1623561275.9,286047000.9,N
1623561295.7,286047001.3,N
1623561315.6,286046998.2,N
1623561335.4,286047001.3,N
1623561355.2,286046996.5,N
1623561375.1,286047002.7,N
1623561376.0,286047002.7,N
1623561395.8,286046997.0,N
1623561415.6,286046990.8,N
1623561435.5,286046992.2,N
1623561455.3,286047000.3,N
1623561475.2,286047000.1,N
1623561495.9,286046995.6,N
1623561515.7,286046994.0,N
1623561535.6,286046993.8,N
1623561555.4,286046982.6,Y
1623561575.3,286046984.1,P
1623561595.1,286046984.8,N
1623561596.0,286046984.8,N
1623561615.8,286046984.7,Y
1623561635.7,286046993.6,P
1623561655.5,286046995.0,N
1623561675.3,286047000.3,N
1623561695.2,286047006.7,N
1623561715.0,286047004.4,N
1623561715.9,286047004.4,N
1623561735.8,286046997.2,N
1623561755.6,286046998.2,N
1623561805.5,286047007.3,E
1623561815.4,286047003.2,N
1623561835.2,286046998.9,P
1623561855.1,286046998.8,N
1623561856.0,286046998.8,N
1623561875.8,286047002.5,N
1623561895.6,286046998.8,N
1623561915.5,286046995.6,N
1623561935.3,286046998.2,N
1623561955.2,286046995.1,N
1623561975.9,286046988.6,Y
1623561995.7,286046988.4,P
1623562015.6,286046985.7,N
1623562035.4,286046991.1,N
1623562055.3,286046992.5,N
1623562075.1,286046993.6,N
1623562076.0,286046993.6,N
1623562095.8,286047001.3,N
1623562115.7,286047007.1,N
1623562135.5,286047004.9,N
1623562155.3,286047007.4,N
1623562175.2,286047003.3,N
1623562195.0,286046997.1,N
1623562195.9,286046997.1,N
1623562215.8,286046997.5,N
1623562235.6,286046999.1,N
1623562255.4,286046998.4,N
1623562275.3,286046995.0,N
1623562295.1,286046995.4,N
1623562315.8,286047000.4,N
1623562335.7,286046997.0,N
1623562355.5,286046995.3,N
1623562375.4,286046996.4,N
1623562395.2,286047002.7,N
1623562415.0,286046995.1,N
1623562415.9,286046995.1,N
1623562435.8,286046995.2,N
1623562455.6,286047002.1,N
1623562475.5,286047007.1,N
1623562495.3,286046995.1,N
1623562515.1,286046990.6,N
1623562535.9,286047000.7,N
1623562555.7,286046997.8,N
1623562575.5,286046999.7,N
1623562595.4,286047004.1,N
1623562615.2,286047003.6,N
1623562635.1,286047004.9,N
1623562636.0,286047004.9,N
1623562655.8,286047004.5,N
1623562675.6,286047010.0,N
1623562695.5,286047006.5,N
1623562715.3,286047008.8,N
1623562735.2,286047001.7,N
1623562755.9,286047001.4,N
1623562775.7,286046997.8,N
1623562795.6,286046998.6,N
1623562815.4,286047002.1,N
1623562835.2,286046996.5,N
1623562855.1,286046994.7,N
1623562856.0,286046994.7,N
1623562875.8,286046991.7,N
1623562895.7,286046993.1,N
1623562915.5,286046990.9,N
1623562935.4,286046991.3,N
1623562955.2,286046992.2,N
1623562975.0,286046997.7,N
1623562975.9,286046997.7,N
1623562995.8,286046996.6,N
1623563015.6,286046988.6,N
1623563035.5,286046981.9,Y
1623563055.3,286046983.1,P
1623563075.1,286046984.4,N
1623563095.9,286046983.8,N
1623563115.7,286046988.9,N
1623563135.5,286046985.2,N
1623563155.4,286046985.4,N
1623563175.2,286046984.5,Y
1623563195.1,286046999.0,P
1623563196.0,286046999.0,N
1623563215.8,286046991.5,N
1623563235.6,286046985.1,N
1623563255.5,286046986.2,N
1623563275.3,286046989.4,N
1623563295.2,286046989.9,N
1623563315.9,286046983.7,Y
1623563335.7,286046993.3,P
1623563355.6,286046993.9,P
1623563375.4,286046994.1,P
1623563395.3,286046994.1,Y
1623563415.1,286047003.1,P
1623563416.0,286047003.1,N
1623563435.8,286047013.6,N
1623563455.7,286047014.6,N
1623563475.5,286047013.3,N
1623563495.3,286047008.2,N
1623563515.2,286047000.4,N
1623563535.0,286046999.7,N
1623563535.9,286046999.7,N
1623563555.8,286047003.2,N
1623563575.6,286047006.9,N
1623563595.4,286047001.8,N
1623563615.3,286047005.0,N
1623563635.1,286047004.6,N
1623563655.9,286047001.5,N
1623563675.7,286047003.7,N
1623563695.5,286047005.7,N
1623563715.4,286047002.4,N
1623563735.2,286047005.3,N
1623563755.0,286047003.7,N
1623563755.9,286047003.7,N
1623563775.8,286046995.2,N
1623563795.6,286046997.0,N
1623563815.5,286047002.5,N
1623563835.3,286047004.3,N
1623563855.1,286047006.7,N
1623563875.9,286047007.0,N
1623563895.7,286047007.1,N
1623563915.5,286047000.4,N
1623563935.4,286046999.2,N
1623563955.2,286047001.6,N
1623563975.1,286047007.0,N
1623563976.0,286047007.0,N
1623563995.8,286046999.1,N
